{"data":{"norad_id":69100,"intl_designator":"2026-106D","name":"2026-106D","alt_names":[],"object_type":"PAYLOAD","status":"ACTIVE","operator":null,"country":"PRC","launch_date":"2026-05-15","launch_site_code":"JSC","launch_vehicle":null,"mission":null,"orbit_class":"UNKNOWN","rcs_meters":null,"size_class":null,"mass_kg":null,"dimensions":null,"purposes":[],"wikipedia_slug":null,"has_3d_model":false,"image_url":null,"decayed_at":null,"tle_current":{"epoch":"2026-05-15T21:29:25.511424Z","epoch_age_seconds":871876,"freshness":"AGED","line1":"1 69100U 26106D   26135.89543416  .00000498  00000+0  33645-4 0  9993","line2":"2 69100  97.5062 218.5717 0012136 280.2995  79.6866 15.10959134   118","mean_motion":15.10959134,"eccentricity":0.0012136,"inclination_deg":97.5062,"raan_deg":218.5717,"arg_perigee_deg":280.2995,"mean_anomaly_deg":79.6866,"bstar":3.3645e-5,"rev_number":11,"period_min":95.303702634753,"perigee_km":524.88592780186,"apogee_km":541.66130364834,"semimajor_km":6911.4106157251,"source":"CELESTRAK","updated_at":"2026-05-25T13:38:09.295134Z"}}}